Tracking 30995 objects as of 5-Jul-2025
HD Live streaming from Space Station
objects crossing your sky now

STARLINK-4374

Track STARLINK-4374 now!
10-day predictions


NORAD ID: 53652
Int'l Code: 2022-105E
Perigee: 568.8 km
Apogee: 571.5 km
Inclination: 97.7 °
Period: 95.9 minutes
Semi major axis: 6941 km
RCS: Unknown
Launch date: August 31, 2022
Source: United States (US)
Launch site: AIR FORCE WESTERN TEST RANGE (AFWTR)
Your satellite tracking list
COSMOS 1856
Track 1 satellite(s)




NASA's NSSDC Master Catalog

Two Line Element Set (TLE):
1 53652U 22105E   25186.62388331  .00000411  00000-0  36619-4 0  9992
2 53652  97.6592  67.9696 0001885  88.6804 271.4636 15.01259668156161
Source of the keplerian elements: AFSPC